Location: Alpha Ridge Park
(39.3209°N, 76.9128°W)
Time: 09:22:44
(UTC-04:00)

Vanguard 2 Rocket - Pass Details

Date: 23 May 2019
Orbit: 554 x 3326 km, 32.9° (Epoch: 19 June)

Event Time Altitude Azimuth Distance (km) Brightness Sun altitude
Rises 07:32:18 0° 244° (WSW) 7,193 10.9 18.1°
Reaches altitude 10° 07:37:35 10° 241° (WSW) 5,975 10.6 19.1°
Maximum altitude 07:54:28 58° 169° (S) 2,504 9.5 22.3°
Drops below altitude 10° 08:04:29 10° 94° (E) 3,711 11.8 24.2°
Sets 08:06:59 0° 90° (E) 4,400 11.8 24.7°
